NOAA 17 DEB, 48746

Orbit data source: Space-Track

NOAA 17 DEB, 48746 is space debris in SSO originally from a launch on Mon, 24 Jun 2002 UTC launched from the Air Force Western Test Range (AFWTR). Debris objects in space refer to the collection of defunct objects orbiting the Earth. Examples of debris include non-operational satellites, rocket bodies, and fragments generated from explosions, collisions, or faulty payload assembly.

Loading next visibility...
Identifier
48746, 2002-032CF
Orbit
SSO
Country
Flag of USUS
Related business
Manufacturer
Unknown
Mission
Spacecraft
Bus & Motor
Unknown
Mass
Unknown
Launch date (UTC)
2002-06-24 (24 years ago)
Launch vehicle
Unknown
Launch site
Air Force Western Test Range (AFWTR)
Object type
Payload
Rocket body
Debris
Shape & HBR
Unknown shape, 0.1 m
Radar Cross Section
Small (<0.1 m²)

Expand to show TLE details & history
Last TLE update: 2 days ago

TLE from 2 days ago
0 NOAA 17 DEB
1 48746U 02032CF  26171.38984172  .00009599  00000-0  20737-2 0  9998
2 48746  98.7492 147.6444 0033642 277.6261  82.1116 14.58184207273101
Epoch: 2026-06-20T09:21Z
TLE epoch observation values (Epoch: 2026-06-20T09:21:22.324Z)
Latitude
-0.00002°
Longitude
98.69623°
Altitude
698.819 km
Speed
7.508 km/s
True Right ascension
09h 50m 34s
True Declination
0° 00' 00"
Sunlit
Object was in daylight at epoch
Visualization orbit readout
Latitude
Unknown
Longitude
Unknown
Altitude
Unknown
Speed
Unknown
Apparent Right ascension
Unknown
Apparent Declination
Unknown
Sunlit
N/A
Visualization observer readout
Local Sidereal Time
21:36:27
Azimuth
Unknown
Elevation
Unknown
Doppler factor
Unknown
Orbital elements
Apogee altitude
719.952 km
Perigee altitude
672.353 km
Semi-major axis
7,074.29 km
Eccentricity
0.00336
Inclination
98.7492°
RAAN
147.6444°
Arg. of periapsis
277.6261°
True anomaly
82.49368°
Mean anomaly
82.1116°
Eccentric anomaly
82.30262°
Mean motion
3.6477 °/min
Orbital period
98.69 mins
BSTAR
0.0020737
Loading maneuver chart data...
Computing Atmospheric mass density...

Documentation

Showing up to 5 results
|